Regional Weather Roundup
Issued by NWS

Home | Current Version | Previous Version | Text Only | Print | Product List | Glossary On
Versions: 1 2 3 4 5 6 7 8 9 10 11 12 13 14 15 16 17 18 19 20 21 22 23 24 25 26 27 28 29 30 31 32 33 34 35 36 37 38 39 40 41 42 43 44 45 46 47
000
ASUS45 KBOU 260107
RWRCO

WEATHER ROUNDUP FOR COLORADO
NATIONAL WEATHER SERVICE DENVER/BOULDER CO
600 PM MST THU DEC 25 2014

NOTE: "FAIR" INDICATES FEW OR NO CLOUDS BELOW 12000 FEET WITH NO
SIGNIFICANT WEATHER AND/OR OBSTRUCTIONS TO VISIBILITY.

COZ001>005-013-030-031-260200-
...NORTHWEST COLORADO...

CITY           SKY/WX    TMP DP  RH WIND       PRES   REMARKS
CRAIG          CLOUDY    26  23  88 SW7       29.57R WCI  18
HAYDEN         CLOUDY    21  19  93 W6        29.56R WCI  14
MEEKER         SNOW      27  24  89 MISG      29.57R VSB 1/2
MOUNT WERNER   NOT AVBL
STEAMBOAT SPGS CLOUDY    28  26  89 CALM      29.54R
WALDEN         CLOUDY    19  18  93 NE9       29.56R WCI   9
$$

COZ006>008-011-260200-
...WEST CENTRAL VALLEYS...

CITY           SKY/WX    TMP DP  RH WIND       PRES   REMARKS
GRAND JUNCTION CLOUDY    28  26  92 N15       29.61R WCI  16
MONTROSE       LGT SNOW  31  28  89 W9        29.61R FOG     WCI  23
EAGLE          PTCLDY    30  25  80 S10       29.57R WCI  21
RIFLE          FLURRIES  31  28  89 W6        29.57R WCI  25
DELTA          CLOUDY    37  27  68 W7        29.60R
NUCLA          MOCLDY    28  27  93 W5        29.65R WCI  23
$$

COZ017>023-064>068-260200-
...SOUTHWEST COLORADO...

CITY           SKY/WX    TMP DP  RH WIND       PRES   REMARKS
DURANGO        CLOUDY    31  22  69 SW3       29.61R
CORTEZ         MOCLDY    30  20  66 NW3       29.62R
PAGOSA SPRINGS LGT SNOW  28  28  98 W9        29.62R VSB 3/4 WCI  19
TELLURIDE      FLURRIES  23  14  69 W10       29.58R WCI  12
WOLF CREEK PAS CLOUDY    10  10 100 MISG      29.55R
$$

COZ009-010-012-014-032>034-037-058>063-260200-
...CENTRAL COLORADO...

CITY           SKY/WX    TMP DP  RH WIND       PRES   REMARKS
ASPEN          MOCLDY    25  20  81 S5        29.53R WCI  19
BUENA VISTA    PTCLDY    27  15  60 E9        29.56R WCI  17
COPPER MTN     MOCLDY    19   5  53 SE14      29.52F WCI   6
BERTHOUD PASS  HVY SNOW   9   3  78 MISG      29.55R VSB 1/4
COTTONWOOD PAS PTCLDY    27  16  63 W7        29.55R WCI  19
GUNNISON       MOCLDY    10   7  85 CALM      29.60R
KREMMLING      CLOUDY    27  19  74 W6        29.55R WCI  20
LEADVILLE      CLOUDY    18   6  59 E5        29.52R WCI  11
MONARCH PASS   CLOUDY    12   9  85 MISG      29.63R
SALIDA         PTCLDY    32  15  50 S5        29.63R WCI  27
SUNLIGHT       LGT SNOW  18  14  86 MISG      29.55R
WILKERSON PASS FOG       16  14  93 S6        29.61R VSB 1/4 WCI   7
$$

COZ069>075-260200-
...SAN LUIS VALLEY/SANGRE DE CRISTO MOUNTAINS...

CITY           SKY/WX    TMP DP  RH WIND       PRES   REMARKS
ALAMOSA        CLOUDY    29  22  75 S9        29.60R WCI  20
LA VETA PASS   NOT AVBL
SAGUACHE       PTCLDY    18  10  73 CALM      29.59R
$$

COZ035-036-038>040-260200-
...NORTHERN COLORADO FRONT RANGE...

CITY           SKY/WX    TMP DP  RH WIND       PRES   REMARKS
DENVER INTL AP LGT SNOW  25  23  92 N21       29.70R FOG     WCI  11
DMNS CITY PARK   N/A     25  24  96 N8G20     29.72R WCI  17
AURORA         NOT AVBL
FRONT RANGE AP NOT AVBL
ERIE MUNI ARPT LGT SNOW  27  26  98 N16G22    29.73R VSB 3/4 WCI  14
BOULDER MUN AP SNOW      27  27 100 N14G25    29.73R VSB 1/2 WCI  15
CENTENNIAL     LGT SNOW  25  24  96 N20G25    29.67R FOG     WCI  11
BROOMFIELD     NOT AVBL
FORT COLLINS   CLOUDY    27  23  86 N12       29.76R VSB 3/4 WCI  16
LONGMONT       LGT SNOW  28  26  91 N9G16     29.77R VSB 1   WCI  20
$$

COZ041-046-047-076>085-087-088-260200-
...PIKES PEAK/PALMER DIVIDE AND SOUTHERN FOOTHILLS...

CITY           SKY/WX    TMP DP  RH WIND       PRES   REMARKS
COLO. SPRINGS  PTCLDY    31  25  78 N16       29.60R WCI  20
A. F. ACADEMY  CLOUDY    31  26  82 N9        29.59R WCI  22
ELLICOTT       NOT AVBL
FALCON         MOCLDY    28  26  94 N14       29.60R WCI  16
FORT CARSON    CLEAR     32  24  74 NE12      29.59R WCI  23
LIMON          CLOUDY    28  26  92 N17       29.65R WCI  16
MONUMENT HILL  CLOUDY    27  27 100 NE13      29.61R FOG     WCI  16
TRINIDAD       CLEAR     37  22  54 SW14      29.59R
$$

COZ042>045-048>051-090-091-260200-
...NORTHEAST COLORADO...

CITY           SKY/WX    TMP DP  RH WIND       PRES   REMARKS
GREELEY ARPT   CLOUDY    27  19  74 N12       29.73R WCI  16
AKRON          CLOUDY    27  25  92 N22       29.67R WCI  13
BURLINGTON     CLEAR     31  25  78 N16       29.61R WCI  20
WRAY           CLOUDY    31  28  90 N22       29.67R WCI  18
STERLING       LGT SNOW  32  30  93 NE21G31   29.71R WCI  20
HOLYOKE        CLOUDY    34  30  86 N24G30    29.70R WCI  21
FORT MORGAN    CLOUDY    27  24  90 NE24      29.72R FOG     WCI  12
$$

COZ086-089-092>099-260200-
...SOUTHEAST COLORADO...

CITY           SKY/WX    TMP DP  RH WIND       PRES   REMARKS
PUEBLO         CLEAR     37  26  64 NE18      29.58R
LA JUNTA       CLEAR     45  19  35 W18G26    29.55R
LAMAR          CLEAR     40  24  53 S10       29.53R
SPRINGFIELD      N/A     38  19  46 SW12      29.58R
$$



USA.gov is the U.S. government's official web portal to all federal, state and local government web resources and services.